• In Uzbekistan
  • List of Countries
  • For 7 days
  • Water Temperature
  • Satellite Maps
  • Weather Map
  • Weather Widgets
  • user-avatar
    Login

    Hourly Weather Escuintla

    Today, 18 August, Saturday

    Time Temperature Precipitation Wind Pressure Humidity
    00:00 +27°C° 1.9 mm 1 mps 749 mmHg 90%
    01:00 +27°C° 0.3 mm 1 mps 749 mmHg 89%
    02:00 +26°C° 0.3 mm 1 mps 749 mmHg 89%
    03:00 +26°C° 0.3 mm 1 mps 748 mmHg 88%
    04:00 +26°C° 0 mm 1 mps 748 mmHg 87%
    05:00 +26°C° 0 mm 1 mps 748 mmHg 86%
    06:00 +26°C° 0 mm 1 mps 748 mmHg 86%
    07:00 +28°C° 0 mm 1 mps 749 mmHg 79%
    08:00 +30°C° 0 mm 1 mps 749 mmHg 71%
    09:00 +32°C° 0 mm 1 mps 749 mmHg 64%
    10:00 +33°C° 0.1 mm 1 mps 749 mmHg 62%
    11:00 +35°C° 0.1 mm 2 mps 748 mmHg 59%
    12:00 +36°C° 0.1 mm 2 mps 748 mmHg 57%
    13:00 +35°C° 0.7 mm 2 mps 747 mmHg 60%
    14:00 +35°C° 0.7 mm 2 mps 747 mmHg 63%
    15:00 +34°C° 0.7 mm 2 mps 746 mmHg 67%
    16:00 +32°C° 1.2 mm 2 mps 746 mmHg 72%
    17:00 +31°C° 1.2 mm 1 mps 746 mmHg 77%
    18:00 +30°C° 1.2 mm 1 mps 746 mmHg 82%
    19:00 +29°C° 2.1 mm 1 mps 747 mmHg 83%
    20:00 +28°C° 2.1 mm 1 mps 747 mmHg 84%
    21:00 +28°C° 2.1 mm 1 mps 748 mmHg 85%
    22:00 +27°C° 1.1 mm 1 mps 748 mmHg 84%
    23:00 +27°C° 1.1 mm 2 mps 748 mmHg 84%

    Tomorrow, 19 August, Sunday

    Time Temperature Precipitation Wind Pressure Humidity
    00:00 +27°C° 1.1 mm 2 mps 748 mmHg 83%
    01:00 +27°C° 0.6 mm 2 mps 747 mmHg 82%
    02:00 +27°C° 0.6 mm 2 mps 747 mmHg 81%
    03:00 +26°C° 0.6 mm 2 mps 746 mmHg 81%
    04:00 +26°C° 0.1 mm 2 mps 746 mmHg 80%
    05:00 +26°C° 0.1 mm 2 mps 747 mmHg 79%
    06:00 +26°C° 0.1 mm 2 mps 747 mmHg 78%
    07:00 +28°C° 0 mm 2 mps 747 mmHg 73%
    08:00 +30°C° 0 mm 1 mps 747 mmHg 68%
    09:00 +32°C° 0 mm 1 mps 747 mmHg 63%
    10:00 +33°C° 0 mm 1 mps 747 mmHg 60%
    11:00 +35°C° 0 mm 2 mps 747 mmHg 57%
    12:00 +36°C° 0 mm 2 mps 747 mmHg 54%
    13:00 +36°C° 0.9 mm 2 mps 746 mmHg 59%
    14:00 +35°C° 0.9 mm 2 mps 746 mmHg 64%
    15:00 +34°C° 0.9 mm 2 mps 745 mmHg 68%
    16:00 +32°C° 1.4 mm 2 mps 745 mmHg 73%
    17:00 +31°C° 1.4 mm 1 mps 745 mmHg 78%
    18:00 +30°C° 1.4 mm 1 mps 745 mmHg 83%
    19:00 +29°C° 1.1 mm 1 mps 746 mmHg 83%
    20:00 +28°C° 1.1 mm 1 mps 747 mmHg 84%
    21:00 +28°C° 1.1 mm 1 mps 747 mmHg 84%
    22:00 +27°C° 0.9 mm 1 mps 747 mmHg 84%
    23:00 +27°C° 0.9 mm 1 mps 747 mmHg 83%

    Day after tomorrow, 20 August, Monday

    Time Temperature Precipitation Wind Pressure Humidity
    00:00 +27°C° 0.9 mm 1 mps 748 mmHg 82%
    01:00 +27°C° 0.8 mm 1 mps 747 mmHg 82%
    02:00 +27°C° 0.8 mm 1 mps 747 mmHg 81%
    03:00 +26°C° 0.8 mm 1 mps 746 mmHg 81%
    04:00 +26°C° 0.2 mm 1 mps 746 mmHg 80%
    05:00 +26°C° 0.2 mm 1 mps 746 mmHg 80%
    06:00 +26°C° 0.2 mm 1 mps 746 mmHg 79%
    07:00 +28°C° 0.1 mm 1 mps 747 mmHg 76%
    08:00 +29°C° 0.1 mm 1 mps 747 mmHg 72%
    09:00 +31°C° 0.1 mm 1 mps 748 mmHg 69%
    10:00 +32°C° 0 mm 1 mps 747 mmHg 63%
    11:00 +33°C° 0 mm 1 mps 747 mmHg 58%
    12:00 +34°C° 0 mm 1 mps 747 mmHg 53%
    13:00 +34°C° 0.1 mm 1 mps 747 mmHg 55%
    14:00 +34°C° 0.1 mm 1 mps 746 mmHg 57%
    15:00 +34°C° 0.1 mm 1 mps 745 mmHg 59%
    16:00 +33°C° 0.6 mm 1 mps 745 mmHg 65%
    17:00 +31°C° 0.6 mm 1 mps 746 mmHg 72%
    18:00 +30°C° 0.6 mm 1 mps 746 mmHg 78%
    19:00 +29°C° 0.7 mm 1 mps 746 mmHg 79%
    20:00 +29°C° 0.7 mm 1 mps 747 mmHg 80%
    21:00 +28°C° 0.7 mm 1 mps 748 mmHg 81%
    22:00 +28°C° 0.9 mm 1 mps 748 mmHg 81%
    23:00 +28°C° 0.9 mm 1 mps 748 mmHg 81%

    21 August, Tuesday

    Time Temperature Precipitation Wind Pressure Humidity
    00:00 +27°C° 0.9 mm 1 mps 748 mmHg 80%
    01:00 +27°C° 0.5 mm 1 mps 748 mmHg 80%
    02:00 +27°C° 0.5 mm 1 mps 747 mmHg 80%
    03:00 +27°C° 0.5 mm 1 mps 747 mmHg 79%
    04:00 +26°C° 0.4 mm 1 mps 747 mmHg 79%
    05:00 +26°C° 0.4 mm 1 mps 747 mmHg 78%
    06:00 +26°C° 0.4 mm 1 mps 747 mmHg 78%
    07:00 +28°C° 0 mm 1 mps 747 mmHg 72%
    08:00 +30°C° 0 mm 1 mps 748 mmHg 67%
    09:00 +32°C° 0 mm 1 mps 748 mmHg 62%
    10:00 +33°C° 0 mm 1 mps 748 mmHg 58%
    11:00 +36°C° 0 mm 2 mps 748 mmHg 55%
    12:00 +37°C° 0 mm 2 mps 747 mmHg 51%
    13:00 +36°C° 0.6 mm 2 mps 747 mmHg 57%
    14:00 +35°C° 0.6 mm 2 mps 746 mmHg 63%
    15:00 +35°C° 0.6 mm 2 mps 745 mmHg 68%
    16:00 +32°C° 1 mm 2 mps 746 mmHg 73%
    17:00 +31°C° 1 mm 1 mps 746 mmHg 78%
    18:00 +30°C° 1 mm 1 mps 746 mmHg 82%
    19:00 +29°C° 0.3 mm 1 mps 747 mmHg 83%
    20:00 +28°C° 0.3 mm 1 mps 748 mmHg 84%
    21:00 +28°C° 0.3 mm 1 mps 748 mmHg 85%
    22:00 +27°C° 0.1 mm 1 mps 748 mmHg 84%
    23:00 +27°C° 0.1 mm 1 mps 748 mmHg 84%

    22 August, Wednesday

    Time Temperature Precipitation Wind Pressure Humidity
    00:00 +27°C° 0.1 mm 1 mps 748 mmHg 83%
    01:00 +27°C° 0.1 mm 1 mps 748 mmHg 83%
    02:00 +26°C° 0.1 mm 1 mps 747 mmHg 82%
    03:00 +26°C° 0.1 mm 1 mps 747 mmHg 81%
    04:00 +26°C° 0 mm 2 mps 747 mmHg 81%
    05:00 +26°C° 0 mm 2 mps 747 mmHg 80%
    06:00 +26°C° 0 mm 2 mps 748 mmHg 79%
    07:00 +28°C° 0.2 mm 2 mps 748 mmHg 76%
    08:00 +29°C° 0.2 mm 1 mps 748 mmHg 72%
    09:00 +31°C° 0.2 mm 1 mps 749 mmHg 68%
    10:00 +32°C° 0.3 mm 1 mps 748 mmHg 66%
    11:00 +34°C° 0.3 mm 2 mps 748 mmHg 64%
    12:00 +35°C° 0.3 mm 2 mps 747 mmHg 62%
    13:00 +35°C° 0.2 mm 2 mps 747 mmHg 62%
    14:00 +35°C° 0.2 mm 2 mps 746 mmHg 63%
    15:00 +36°C° 0.2 mm 2 mps 745 mmHg 63%
    16:00 +34°C° 1.2 mm 2 mps 746 mmHg 69%
    17:00 +32°C° 1.2 mm 2 mps 746 mmHg 75%
    18:00 +30°C° 1.2 mm 1 mps 746 mmHg 81%
    19:00 +30°C° 1.1 mm 1 mps 747 mmHg 82%
    20:00 +29°C° 1.1 mm 1 mps 748 mmHg 84%
    21:00 +28°C° 1.1 mm 1 mps 748 mmHg 85%
    22:00 +28°C° 0.2 mm 1 mps 748 mmHg 84%
    23:00 +27°C° 0.2 mm 1 mps 748 mmHg 83%

    23 August, Thursday

    Time Temperature Precipitation Wind Pressure Humidity
    00:00 +27°C° 0.2 mm 1 mps 748 mmHg 82%
    01:00 +27°C° 0.1 mm 1 mps 748 mmHg 81%
    02:00 +27°C° 0.1 mm 1 mps 747 mmHg 79%
    03:00 +26°C° 0.1 mm 2 mps 747 mmHg 78%
    04:00 +26°C° 0 mm 2 mps 747 mmHg 77%
    05:00 +26°C° 0 mm 2 mps 747 mmHg 76%
    06:00 +26°C° 0 mm 2 mps 748 mmHg 75%
    07:00 +29°C° 0 mm 1 mps 748 mmHg 68%
    08:00 +31°C° 0 mm 1 mps 748 mmHg 62%
    09:00 +33°C° 0 mm 1 mps 748 mmHg 55%
    10:00 +34°C° 0.1 mm 1 mps 748 mmHg 53%
    11:00 +36°C° 0.1 mm 2 mps 747 mmHg 52%
    12:00 +37°C° 0.1 mm 2 mps 747 mmHg 50%
    13:00 +37°C° 1 mm 2 mps 746 mmHg 56%
    14:00 +36°C° 1 mm 2 mps 746 mmHg 62%
    15:00 +35°C° 1 mm 2 mps 745 mmHg 68%
    16:00 +32°C° 1.5 mm 2 mps 745 mmHg 73%
    17:00 +31°C° 1.5 mm 1 mps 746 mmHg 78%
    18:00 +30°C° 1.5 mm 1 mps 746 mmHg 83%
    19:00 +29°C° 0.1 mm 1 mps 746 mmHg 83%
    20:00 +28°C° 0.1 mm 1 mps 747 mmHg 84%
    21:00 +28°C° 0.1 mm 1 mps 748 mmHg 84%
    22:00 +27°C° 0.4 mm 1 mps 748 mmHg 84%
    23:00 +27°C° 0.4 mm 1 mps 748 mmHg 83%
    Show more